EW5962 Weather Reports


time (UTC)temp
C
wind
direction
speed
KPH
gust
KPH
rain 1hr
cm
rain 24hr
cm
rain mn
cm
humidity
%
barometer
mb
20260904121003 22 183 0.0 0.0 0.00 0.00 0.00 96 1015.1
20260904120603 22 183 0.0 0.0 0.00 0.00 0.00 96 1015.0
20260904120002 22 183 0.0 0.0 0.00 0.00 0.00 96 1015.0
20260904115509 22 183 0.0 0.0 0.00 0.00 0.00 96 1014.9
20260904115103 22 183 0.0 0.0 0.00 0.00 0.00 96 1014.8
20260904114504 22 183 0.0 0.0 0.00 0.00 0.00 96 1014.8
20260904114009 22 183 0.0 0.0 0.00 0.00 0.00 96 1014.8
20260904113604 22 183 0.0 0.0 0.00 0.00 0.00 96 1014.8
20260904113002 22 183 0.0 0.0 0.00 0.00 0.00 96 1014.8
20260904112509 22 183 0.0 0.0 0.00 0.00 0.00 95 1014.7
20260904112103 22 183 0.0 0.0 0.00 0.00 0.00 95 1014.7
20260904111505 22 183 0.0 0.0 0.00 0.00 0.00 95 1014.8
20260904111009 22 183 0.0 0.0 0.00 0.00 0.00 95 1014.7
20260904110603 22 183 0.0 0.0 0.00 0.00 0.00 95 1014.8
20260904110003 22 183 0.0 0.0 0.00 0.00 0.00 95 1014.8
20260904105509 22 183 0.0 0.0 0.00 0.00 0.00 95 1014.8
20260904105103 22 183 0.0 0.0 0.00 0.00 0.00 95 1014.7
20260904104503 22 183 0.0 0.0 0.00 0.00 0.00 95 1014.6
20260904104009 22 183 0.0 0.0 0.00 0.00 0.00 95 1014.5
20260904103602 22 183 0.0 0.0 0.00 0.00 0.00 95 1014.5
20260904103002 22 183 0.0 0.0 0.00 0.00 0.00 95 1014.5
20260904102511 22 183 0.0 0.0 0.00 0.00 0.00 95 1014.5
20260904102102 22 183 0.0 0.0 0.00 0.00 0.00 95 1014.5
20260904101505 22 183 0.0 0.0 0.00 0.00 0.00 95 1014.5
20260904101008 22 183 0.0 0.0 0.00 0.00 0.00 94 1014.5
20260904100603 22 183 0.0 0.0 0.00 0.00 0.00 94 1014.5
20260904100003 22 183 0.0 0.0 0.00 0.00 0.00 94 1014.4
20260904095509 22 183 0.0 0.0 0.00 0.00 0.00 94 1014.4
20260904095107 22 183 0.0 0.0 0.00 0.00 0.00 94 1014.4
20260904094506 22 183 0.0 0.0 0.00 0.00 0.00 94 1014.4
20260904094009 22 183 0.0 0.0 0.00 0.00 0.00 94 1014.4
20260904093003 22 183 0.0 0.0 0.00 0.00 0.00 94 1014.2
20260904092511 22 183 0.0 0.0 0.00 0.00 0.00 94 1014.1
20260904092103 22 183 0.0 0.0 0.00 0.00 0.00 94 1014.1
20260904091503 22 183 0.0 0.0 0.00 0.00 0.00 94 1014.0
20260904091011 22 183 0.0 0.0 0.00 0.00 0.00 94 1013.9
20260904090602 22 183 0.0 0.0 0.00 0.00 0.00 94 1013.9
20260904090004 22 181 0.0 0.0 0.00 0.00 0.00 94 1013.8
20260904085513 22 184 0.0 0.0 0.00 0.00 0.00 94 1013.7
20260904085103 22 188 0.0 0.0 0.00 0.00 0.00 94 1013.7
20260904084503 22 188 0.0 0.0 0.00 0.00 0.00 94 1013.7
20260904084008 22 188 0.0 0.0 0.00 0.00 0.00 94 1013.6
20260904083606 22 183 0.0 0.0 0.00 0.00 0.00 94 1013.6
20260904083002 22 176 0.0 0.0 0.00 0.00 0.00 94 1013.6
20260904082509 22 176 0.0 0.0 0.00 0.00 0.00 94 1013.5
20260904082103 22 176 0.0 0.0 0.00 0.00 0.00 94 1013.5
20260904081507 22 176 0.0 0.0 0.00 0.00 0.00 94 1013.5
20260904081010 22 176 0.0 0.0 0.00 0.00 0.00 94 1013.5
20260904080602 22 176 0.0 0.0 0.00 0.00 0.00 94 1013.6
20260904080004 22 176 0.0 0.0 0.00 0.00 0.00 94 1013.6
20260904075509 22 176 0.0 0.0 0.00 0.00 0.00 94 1013.7
20260904075103 22 176 0.0 0.0 0.00 0.00 0.00 94 1013.7
20260904074502 23 176 0.0 0.0 0.00 0.00 0.00 94 1013.7
20260904074009 23 176 0.0 0.0 0.00 0.00 0.00 94 1013.8
20260904073605 23 176 0.0 0.0 0.00 0.00 0.00 94 1013.9
20260904073013 23 176 0.0 0.0 0.00 0.00 0.00 93 1013.9
20260904072510 23 176 0.0 0.0 0.00 0.00 0.00 93 1013.9
20260904072103 23 176 0.0 0.0 0.00 0.00 0.00 93 1013.9
20260904071503 23 176 0.0 0.0 0.00 0.00 0.00 93 1013.9
20260904071009 23 176 0.0 0.0 0.00 0.00 0.00 93 1014.0
20260904070603 23 176 0.0 0.0 0.00 0.00 0.00 93 1014.0
20260904070007 23 176 0.0 0.0 0.00 0.00 0.00 93 1014.1
20260904065512 23 176 0.0 0.0 0.00 0.00 0.00 93 1014.1
20260904065103 23 176 0.0 0.0 0.00 0.00 0.00 93 1014.1
20260904064510 23 176 0.0 0.0 0.00 0.00 0.00 93 1014.2
20260904064009 23 176 0.0 0.0 0.00 0.00 0.00 93 1014.3
20260904063603 23 176 0.0 0.0 0.00 0.00 0.00 93 1014.3
20260904063003 23 176 0.0 0.0 0.00 0.00 0.00 93 1014.4
20260904062511 23 176 0.0 0.0 0.00 0.00 0.00 93 1014.4
20260904062103 23 176 0.0 0.0 0.00 0.00 0.00 93 1014.5
20260904061503 23 176 0.0 0.0 0.00 0.00 0.00 93 1014.6
20260904061009 23 176 0.0 0.0 0.00 0.00 0.00 93 1014.6
20260904060602 23 176 0.0 0.0 0.00 0.00 0.00 93 1014.6
20260904060002 23 176 0.0 0.0 0.00 0.00 0.00 93 1014.7
20260904055510 23 176 0.0 0.0 0.00 0.00 0.00 93 1014.8
20260904055105 23 176 0.0 0.0 0.00 0.00 0.00 93 1014.8
20260904054506 23 176 0.0 0.0 0.00 0.00 0.00 93 1014.8
20260904054009 23 176 0.0 0.0 0.00 0.00 0.00 93 1014.9
20260904053602 23 176 0.0 0.0 0.00 0.00 0.00 93 1014.9
20260904053003 23 176 0.0 0.0 0.00 0.00 0.00 93 1015.0
20260904052509 23 176 0.0 0.0 0.00 0.00 0.00 93 1014.9
20260904052104 23 176 0.0 0.0 0.00 0.00 0.00 93 1015.0
20260904051503 23 176 0.0 0.0 0.00 0.00 0.00 93 1015.1
20260904051008 23 176 0.0 0.0 0.00 0.00 0.00 93 1015.1
20260904050603 23 176 0.0 0.0 0.00 0.00 0.00 93 1015.2
20260904050003 23 176 0.0 0.0 0.00 0.00 0.00 93 1015.2
20260904045509 23 176 0.0 0.0 0.00 0.00 0.00 93 1015.2
20260904045104 23 176 0.0 0.0 0.00 0.00 0.00 93 1015.2
20260904044506 23 176 0.0 0.0 0.00 0.00 0.00 93 1015.0
20260904044009 23 176 0.0 0.0 0.00 0.00 0.00 93 1015.1
20260904043603 23 176 0.0 0.0 0.00 0.00 0.00 92 1015.1
20260904043002 23 176 0.0 0.0 0.00 0.00 0.00 92 1015.0
20260904042509 23 176 0.0 0.0 0.00 0.00 0.00 92 1015.0
20260904042104 23 176 0.0 0.0 0.00 0.00 0.00 92 1014.9
20260904041503 23 176 0.0 0.0 0.00 0.00 0.00 92 1014.9
20260904041002 23 176 0.0 0.0 0.00 0.00 0.00 92 1015.0
20260904040502 23 176 0.0 0.0 0.00 0.00 0.00 91 1014.9
20260904040009 23 176 0.0 0.0 0.00 0.00 0.00 91 1014.8
20260904035603 23 176 0.0 0.0 0.00 0.00 0.00 91 1014.8
20260904035002 23 176 0.0 0.0 0.00 0.00 0.00 91 1014.8
20260904034509 23 176 0.0 0.0 0.00 0.00 0.00 91 1014.8
20260904034102 24 176 0.0 0.0 0.00 0.00 0.00 91 1014.8
20260904033503 24 176 0.0 0.0 0.00 0.00 0.00 91 1014.9
20260904033015 24 176 0.0 0.0 0.00 0.00 0.00 91 1014.9
20260904032604 24 176 0.0 0.0 0.00 0.00 0.00 91 1014.9
20260904032002 24 176 0.0 0.0 0.00 0.00 0.00 91 1014.8
20260904031508 24 176 0.0 0.0 0.00 0.00 0.00 91 1014.9
20260904031103 24 176 0.0 0.0 0.00 0.00 0.00 90 1014.8
20260904030503 24 176 0.0 0.0 0.00 0.00 0.00 90 1014.9
20260904030010 24 176 0.0 0.0 0.00 0.00 0.00 90 1014.9
20260904025603 25 176 0.0 0.0 0.00 0.00 0.00 90 1014.8
20260904025002 25 176 0.0 0.0 0.00 0.00 0.00 90 1014.8
20260904024509 25 176 0.0 0.0 0.00 0.00 0.00 89 1014.9
20260904024103 25 176 0.0 0.0 0.00 0.00 0.00 89 1015.0
20260904023502 25 176 0.0 0.0 0.00 0.00 0.00 89 1015.0
20260904023009 25 176 0.0 0.0 0.00 0.00 0.00 89 1014.9
20260904022603 25 176 0.0 0.0 0.00 0.00 0.00 88 1015.0
20260904022002 25 176 0.0 0.0 0.00 0.00 0.00 88 1015.1
20260904021511 25 176 0.0 0.0 0.00 0.00 0.00 88 1015.1
20260904021103 25 176 0.0 0.0 0.00 0.00 0.00 88 1015.1
20260904020503 25 176 0.0 0.0 0.00 0.00 0.00 87 1015.0
20260904020009 25 176 0.0 0.0 0.00 0.00 0.00 87 1015.0
20260904015605 25 176 0.0 0.0 0.00 0.00 0.00 87 1015.0
20260904015004 25 176 0.0 0.0 0.00 0.00 0.00 86 1014.9
20260904014509 26 176 0.0 0.0 0.00 0.00 0.00 86 1014.8
20260904014104 26 176 0.0 0.0 0.00 0.00 0.00 86 1014.9
20260904013502 26 176 0.0 0.0 0.00 0.00 0.00 86 1014.9
20260904013016 26 176 0.0 0.0 0.00 0.00 0.00 85 1014.8
20260904012605 26 176 0.0 0.0 0.00 0.00 0.00 85 1014.7
20260904012004 26 176 0.0 0.0 0.00 0.00 0.00 85 1014.6
20260904011508 26 176 0.0 0.0 0.00 0.00 0.00 85 1014.5
20260904011104 26 176 0.0 0.0 0.00 0.00 0.00 84 1014.5
20260904010502 26 176 0.0 0.0 0.00 0.00 0.00 84 1014.4
20260904010008 26 176 0.0 0.0 0.00 0.00 0.00 84 1014.3
20260904005605 27 176 0.0 0.0 0.00 0.00 0.00 83 1014.2
20260904005002 27 176 0.0 0.0 0.00 0.00 0.00 83 1014.3
20260904004510 27 176 0.0 0.0 0.00 0.00 0.00 83 1014.0
20260904004104 27 176 0.0 0.0 0.00 0.00 0.00 82 1014.0
20260904003503 27 176 0.0 0.0 0.00 0.00 0.00 82 1013.9
20260904003015 27 176 0.0 0.0 0.00 0.00 0.00 81 1013.8
20260904002503 27 176 0.0 0.0 0.00 0.00 0.00 81 1013.7
20260904002008 28 176 0.0 0.0 0.00 0.00 0.00 80 1013.7
20260904001602 28 176 0.0 0.0 0.00 0.00 0.00 80 1013.7
20260904001002 28 176 0.0 0.0 0.00 0.00 0.00 79 1013.7
20260904000513 28 176 0.0 0.0 0.00 0.00 0.00 78 1013.6
20260903235501 29 176 0.0 0.0 0.00 0.00 0.00 76 1013.5
20260903235008 29 176 0.0 0.0 0.00 0.00 0.00 75 1013.4
20260903234613 29 176 0.0 0.0 0.00 0.00 0.00 75 1013.3
20260903234002 30 176 0.0 0.0 0.00 0.00 0.00 74 1013.3
20260903233511 30 176 0.0 0.0 0.00 0.00 0.00 72 1013.2
20260903233103 30 176 0.0 0.0 0.00 0.00 0.00 73 1013.2
20260903232504 30 176 0.0 0.0 0.00 0.00 0.00 72 1013.2
20260903232008 30 176 0.0 0.0 0.00 0.00 0.00 70 1013.2
20260903231604 31 176 0.0 0.0 0.00 0.00 0.00 69 1013.2
20260903231005 31 176 0.0 0.0 0.00 0.00 0.00 69 1013.2
20260903230508 31 176 0.0 0.0 0.00 0.00 0.00 69 1013.1
20260903230109 31 176 0.0 0.0 0.00 0.00 0.00 68 1013.1
20260903225503 31 176 0.0 0.0 0.00 0.00 0.00 68 1013.1
20260903225008 31 176 0.0 0.0 0.00 0.00 0.00 66 1013.1
20260903224607 32 98 0.0 0.0 0.00 0.00 0.00 64 1013.0
20260903224003 32 98 0.0 0.0 0.00 0.00 0.00 64 1013.1
20260903223508 32 98 0.0 0.0 0.00 0.00 0.00 64 1013.1
20260903223102 32 98 0.0 1.6 0.00 0.00 0.00 61 1013.1
20260903222504 32 94 0.0 1.6 0.00 0.00 0.00 61 1013.0
20260903222009 32 150 0.0 1.6 0.00 0.00 0.00 57 1013.1
20260903221603 32 148 0.0 1.6 0.00 0.00 0.00 59 1013.2
20260903221004 32 203 0.0 0.0 0.00 0.00 0.00 60 1013.1
20260903220512 32 203 0.0 0.0 0.00 0.00 0.00 61 1013.2
20260903220108 32 203 0.0 0.0 0.00 0.00 0.00 61 1013.2
20260903215503 32 203 0.0 0.0 0.00 0.00 0.00 61 1013.2
20260903215009 33 203 0.0 1.6 0.00 0.00 0.00 62 1013.3
20260903214605 33 203 0.0 1.6 0.00 0.00 0.00 59 1013.3
20260903214002 33 203 0.0 1.6 0.00 0.00 0.00 56 1013.4
20260903213508 33 203 0.0 1.6 0.00 0.00 0.00 59 1013.3
20260903213102 34 203 0.0 1.6 0.00 0.00 0.00 55 1013.3
20260903212504 34 203 0.0 0.0 0.00 0.00 0.00 54 1013.3
20260903212010 34 203 0.0 0.0 0.00 0.00 0.00 55 1013.3
20260903211602 35 203 0.0 0.0 0.00 0.00 0.00 54 1013.3
20260903211002 35 203 0.0 0.0 0.00 0.00 0.00 52 1013.4
20260903210509 35 203 0.0 6.4 0.00 0.00 0.00 50 1013.4
20260903210104 35 203 0.0 6.4 0.00 0.00 0.00 50 1013.4
20260903205502 35 236 0.0 6.4 0.00 0.00 0.00 50 1013.4
20260903205009 35 204 0.0 1.6 0.00 0.00 0.00 59 1013.5
20260903204607 35 204 0.0 3.2 0.00 0.00 0.00 54 1013.5
20260903204003 35 213 0.0 0.0 0.00 0.00 0.00 59 1013.4
20260903203524 35 213 0.0 0.0 0.00 0.00 0.00 58 1013.5
20260903203102 35 229 0.0 0.0 0.00 0.00 0.00 57 1013.5
20260903202503 35 229 0.0 0.0 0.00 0.00 0.00 57 1013.5
20260903202105 35 206 0.0 0.0 0.00 0.00 0.00 52 1013.5
20260903201502 35 176 0.0 0.0 0.00 0.00 0.00 53 1013.7
20260903201008 36 140 0.0 1.6 0.00 0.00 0.00 52 1013.7
20260903200603 36 191 0.0 1.6 0.00 0.00 0.00 51 1013.7
20260903200004 36 243 0.0 3.2 0.00 0.00 0.00 50 1013.8
20260903195508 36 228 0.0 6.4 0.00 0.00 0.00 49 1013.9
20260903195103 36 191 0.0 6.4 0.00 0.00 0.00 49 1013.9
20260903194502 36 181 0.0 4.8 0.00 0.00 0.00 50 1014.1
20260903194008 36 162 0.0 0.0 0.00 0.00 0.00 50 1014.1
20260903193603 36 189 0.0 0.0 0.00 0.00 0.00 56 1014.1
20260903193002 36 191 0.0 0.0 0.00 0.00 0.00 49 1014.2
20260903192508 36 186 0.0 4.8 0.00 0.00 0.00 49 1014.2
20260903192102 36 186 0.0 4.8 0.00 0.00 0.00 47 1014.3
20260903191502 36 243 0.0 1.6 0.00 0.00 0.00 50 1014.2
20260903191009 36 156 0.0 1.6 0.00 0.00 0.00 46 1014.2
20260903190602 36 179 0.0 1.6 0.00 0.00 0.00 46 1014.3
20260903190002 37 182 0.0 3.2 0.00 0.00 0.00 47 1014.4
20260903185509 37 147 0.0 11.3 0.00 0.00 0.00 46 1014.4
20260903185102 37 200 0.0 11.3 0.00 0.00 0.00 44 1014.4
20260903184502 36 214 0.0 1.6 0.00 0.00 0.00 45 1014.5
20260903184010 36 234 0.0 0.0 0.00 0.00 0.00 51 1014.4
20260903183604 36 11 0.0 0.0 0.00 0.00 0.00 51 1014.5
20260903183003 36 184 0.0 4.8 0.00 0.00 0.00 48 1014.6
20260903182510 36 198 0.0 4.8 0.00 0.00 0.00 47 1014.7
20260903182102 36 241 0.0 3.2 0.00 0.00 0.00 48 1014.7
20260903181503 35 333 0.0 4.8 0.00 0.00 0.00 49 1014.8
20260903181011 35 8 0.0 6.4 0.00 0.00 0.00 50 1014.8
20260903180602 35 163 0.0 6.4 0.00 0.00 0.00 54 1014.9
20260903180007 35 112 0.0 0.0 0.00 0.00 0.00 57 1014.9
20260903175509 35 24 0.0 1.6 0.00 0.00 0.00 61 1014.9
20260903175103 34 16 0.0 1.6 0.00 0.00 0.00 58 1015.0
20260903174503 33 167 0.0 0.0 0.00 0.00 0.00 54 1015.0
20260903174009 34 152 0.0 0.0 0.00 0.00 0.00 54 1015.0
20260903173602 34 176 0.0 0.0 0.00 0.00 0.00 54 1015.1
20260903173002 35 176 0.0 0.0 0.00 0.00 0.00 54 1015.2
20260903172509 35 190 0.0 1.6 0.00 0.00 0.00 54 1015.2
20260903172102 35 192 0.0 1.6 0.00 0.00 0.00 55 1015.3
20260903171507 35 190 0.0 3.2 0.00 0.00 0.00 52 1015.3
20260903171010 35 215 0.0 8.0 0.00 0.00 0.00 53 1015.4
20260903170603 35 349 0.0 8.0 0.00 0.00 0.00 52 1015.4
20260903170003 35 213 0.0 0.0 0.00 0.00 0.00 52 1015.5
20260903165508 35 190 0.0 0.0 0.00 0.00 0.00 52 1015.6
20260903165102 35 193 0.0 0.0 0.00 0.00 0.00 52 1015.6
20260903164503 35 337 0.0 4.8 0.00 0.00 0.00 52 1015.7
20260903164008 35 347 0.0 4.8 0.00 0.00 0.00 52 1015.8
20260903163603 35 264 0.0 1.6 0.00 0.00 0.00 58 1015.8
20260903163006 35 261 0.0 1.6 0.00 0.00 0.00 56 1015.9
20260903162508 35 207 0.0 1.6 0.00 0.00 0.00 59 1016.0
20260903162103 35 221 0.0 1.6 0.00 0.00 0.00 57 1016.0
20260903161502 35 189 0.0 1.6 0.00 0.00 0.00 54 1016.0
20260903161009 35 316 0.0 0.0 0.00 0.00 0.00 54 1016.1
20260903160602 35 335 0.0 0.0 0.00 0.00 0.00 56 1016.1
20260903160001 34 352 0.0 0.0 0.00 0.00 0.00 58 1016.2
20260903155509 33 6 0.0 0.0 0.00 0.00 0.00 61 1016.2
20260903155102 33 185 0.0 0.0 0.00 0.00 0.00 59 1016.2
20260903154504 33 205 0.0 1.6 0.00 0.00 0.00 60 1016.2
20260903154015 33 318 0.0 1.6 0.00 0.00 0.00 61 1016.2
20260903153603 32 183 0.0 3.2 0.00 0.00 0.00 69 1016.2
20260903153003 32 1 0.0 0.0 0.00 0.00 0.00 69 1016.3
20260903152509 32 357 0.0 0.0 0.00 0.00 0.00 64 1016.4
20260903152102 31 5 0.0 0.0 0.00 0.00 0.00 71 1016.4
20260903151502 31 346 0.0 0.0 0.00 0.00 0.00 66 1016.4
20260903151008 31 25 0.0 0.0 0.00 0.00 0.00 67 1016.4
20260903150603 30 348 0.0 0.0 0.00 0.00 0.00 74 1016.4
20260903150007 30 269 0.0 0.0 0.00 0.00 0.00 73 1016.4
20260903145508 30 349 0.0 0.0 0.00 0.00 0.00 76 1016.4
20260903145102 29 351 0.0 0.0 0.00 0.00 0.00 76 1016.3
20260903144502 28 10 0.0 0.0 0.00 0.00 0.00 77 1016.3
20260903144009 28 8 0.0 0.0 0.00 0.00 0.00 76 1016.3
20260903143601 28 15 0.0 0.0 0.00 0.00 0.00 77 1016.3
20260903143002 27 348 0.0 1.6 0.00 0.00 0.00 82 1016.3
20260903142508 27 353 0.0 1.6 0.00 0.00 0.00 79 1016.3
20260903142104 27 43 0.0 0.0 0.00 0.00 0.00 84 1016.3
20260903141502 26 197 0.0 0.0 0.00 0.00 0.00 87 1016.3
20260903141010 26 197 0.0 0.0 0.00 0.00 0.00 88 1016.4
20260903140603 26 197 0.0 0.0 0.00 0.00 0.00 90 1016.4
20260903140003 25 195 0.0 0.0 0.00 0.00 0.00 91 1016.4
20260903135509 25 198 0.0 0.0 0.00 0.00 0.00 93 1016.4
20260903135103 25 198 0.0 0.0 0.00 0.00 0.00 94 1016.3
20260903134502 24 198 0.0 0.0 0.00 0.00 0.00 94 1016.4
20260903134008 24 198 0.0 0.0 0.00 0.00 0.00 96 1016.3
20260903133604 23 198 0.0 0.0 0.00 0.00 0.00 97 1016.4
20260903133002 23 198 0.0 0.0 0.00 0.00 0.00 97 1016.3
20260903132512 23 198 0.0 0.0 0.00 0.00 0.00 97 1016.3
20260903132101 23 198 0.0 0.0 0.00 0.00 0.00 97 1016.3
20260903131502 22 198 0.0 0.0 0.00 0.00 0.00 98 1016.4
20260903131009 22 198 0.0 0.0 0.00 0.00 0.00 98 1016.4
20260903130603 22 198 0.0 0.0 0.00 0.00 0.00 98 1016.5
20260903130002 22 198 0.0 0.0 0.00 0.00 0.00 97 1016.5
20260903125509 22 198 0.0 0.0 0.00 0.00 0.00 97 1016.5
20260903125102 21 198 0.0 0.0 0.00 0.00 0.00 97 1016.5
20260903124503 21 198 0.0 0.0 0.00 0.00 0.00 97 1016.5
20260903124008 21 198 0.0 0.0 0.00 0.00 0.00 97 1016.5
20260903123601 21 198 0.0 0.0 0.00 0.00 0.00 97 1016.5
20260903123007 21 198 0.0 0.0 0.00 0.00 0.00 97 1016.5
20260903122508 21 198 0.0 0.0 0.00 0.00 0.00 97 1016.5
20260903122103 21 198 0.0 0.0 0.00 0.00 0.00 97 1016.4
20260903121502 21 198 0.0 0.0 0.00 0.00 0.00 97 1016.4